NOAA 13 (22739 NORAD) Tracking and Keplerian Element Data

This shows tracking and keplerian element data for the satellite.

Feedback or suggestion? Click here.




ElementValue
Catalog22739
NameNOAA 13
Epoch Orbit62297
Epoch Day34.85561482
Epoch Year2025
RAAN349.9694
Inclination98.6404
Eccentricity0.0010493
Argument of Perigee109.2393
Mean Anonmoly250.9916
Mean Motion14.13448285
Decay Rate3.35E-06
L11 22739U 93050A 25034.85561482 .00000335 00000+0 20073-3 0 9998
L22 22739 98.6404 349.9694 0010493 109.2393 250.9916 14.13448285622972



Live tracking and technical data element details for NOAA 13 (NORAD 22739). NOAA 13 can be tracked NOW for your location showing map with azimuth and elevation plus other details from your city location.







IsCatalogInMostPopularTable: catalog: 22739, numindb: 500
Update: records affected: 1



GetName: 22739 NOAA 13

Hit Count: updated at: Fri, 16 May 2025 11:48:21 GMT